Location: NJAA Observatory
(40.6819°N, 74.8979°W)
Time: 21:45:40
(UTC-04:00)

Iridium 4 - Visible Passes

Search period start: 26 May 2015 00:00
Search period end: 05 June 2015 00:00
Orbit: 773 x 777 km, 86.4° (Epoch: 26 May)

Date Brightness Start Highest point End Pass type
(mag) Time Alt. Az. Time Alt. Az. Time Alt. Az.
26 May 5.5 03:03:34 41° S 03:05:24 83° E 03:10:39 10° N visible
26 May 7.5 04:45:19 10° W 04:46:56 11° WNW 04:48:13 10° NW visible
27 May 6.4 02:29:33 32° SE 02:31:15 43° E 02:36:12 10° NNE visible
27 May 7.0 04:09:59 16° WSW 04:12:14 21° WNW 04:16:03 10° NNW visible
28 May 7.3 01:55:31 20° ESE 01:57:12 24° E 02:01:20 10° NNE visible
28 May 6.2 03:35:57 30° WSW 03:37:42 38° W 03:42:32 10° NNW visible
29 May 7.9 01:21:29 11° E 01:23:14 13° ENE 01:25:32 10° NE visible
29 May 5.5 03:01:55 48° SSW 03:03:21 72° W 03:08:34 10° N visible
30 May 5.8 02:27:52 46° SE 02:29:08 61° E 02:34:16 10° N visible
30 May 7.3 04:08:17 13° W 04:10:22 15° WNW 04:13:15 10° NW visible
31 May 6.8 01:53:49 28° ESE 01:55:01 32° E 01:59:39 10° NNE visible
31 May 6.6 03:34:14 24° WSW 03:35:45 28° WNW 03:40:09 10° NNW visible
01 Jun 7.5 01:19:45 16° E 01:21:00 18° E 01:24:28 10° NE visible
01 Jun 5.8 03:00:10 44° SW 03:01:19 52° W 03:06:23 10° N visible
02 Jun 5.4 02:26:06 61° S 02:27:02 84° E 02:32:16 10° N visible
02 Jun 7.6 04:07:05 10° W 04:08:34 11° WNW 04:09:41 10° WNW visible
03 Jun 6.2 01:52:01 40° ESE 01:52:52 44° E 01:57:49 10° NNE visible
03 Jun 7.0 03:32:26 19° W 03:33:50 21° WNW 03:37:37 10° NNW visible
04 Jun 7.1 01:17:56 23° E 01:18:48 24° E 01:22:58 10° NNE visible
04 Jun 6.2 02:58:21 35° WSW 02:59:18 37° W 03:04:07 10° NNW visible
